Regional Weather Roundup
Issued by NWS State College, PA

Home | Current Version | Previous Version | Graphics & Text | Print | Product List | Glossary Off
Versions: 1 2 3 4 5 6 7 8 9 10 11 12 13 14 15 16 17 18 19 20 21 22 23 24 25 26 27 28 29 30 31 32 33 34 35 36 37 38 39 40 41 42 43 44 45 46 47 48 49 50

000
ASUS41 KCTP 230303
RWRCTP

REGIONAL WEATHER ROUNDUP
NATIONAL WEATHER SERVICE STATE COLLEGE PA
1100 PM EDT MON SEP 22 2014

Note: "fair" indicates few or no clouds below 12,000 feet with no
significant weather and/or obstructions to visibility.

* = STATION THAT DOES NOT REPORT PRECIPITATION /E.G. RAIN...SNOW...ETC/
    THUNDER OR FOG.

PAZ002>004-007>009-013>016-020>023-029>032-230400-
WESTERN PENNSYLVANIA

CITY           SKY/WX    TMP DP  RH WIND       PRES   REMARKS
ERIE           MOCLDY    48  42  80 S5        30.26R
MEADVILLE      MOCLDY    44  40  85 SW6       30.27R
FRANKLIN*      CLEAR     43  37  81 W5        30.28R
NEW CASTLE       N/A     42  42 100 CALM      30.29R
BEAVER COUNTY  NOT AVBL
BUTLER*        CLEAR     45  39  81 CALM      30.29S
PITTSBURGH INT CLEAR     50  41  71 VRB5      30.28R
PITTSBURGH     CLEAR     49  40  71 N6        30.28R
INDIANA*       CLEAR     46  43  87 CALM      30.31R
LATROBE        CLEAR     48  45  87 CALM      30.29R
WASHINGTON CO* CLEAR     41  37  87 CALM      30.29R
$$

PAZ004>006-010>012-017>019-024>028-033>037-041-042-045-046-049>053-230400-
CENTRAL PENNSYLVANIA

CITY           SKY/WX    TMP DP  RH WIND       PRES   REMARKS
BRADFORD       CLEAR     44  42  93 W7        30.23R
DUBOIS         CLEAR     45  41  86 W8        30.24R
CLEARFIELD     CLEAR     47  41  80 W5        30.25R
JOHNSTOWN      CLOUDY    47  40  76 N6        30.26R
ALTOONA        MOCLDY    48  39  71 VRB5      30.26R
STATE COLLEGE  CLOUDY    51  42  70 NW3       30.24S
WILLIAMSPORT   CLEAR     49  42  77 W5        30.21R
SELINSGROVE    MOCLDY    54  41  61 N5        30.24R
FT INDIANTOWN  CLOUDY    56  41  57 NW7       30.22R
CAPITAL CITY   CLOUDY    59  40  49 NW10G17   30.22R
HARRISBURG     MOCLDY    59  41  51 NW16      30.21R
YORK           MOCLDY    55  43  63 NW8       30.22R
$$

PAZ038>040-043-044-047-048-054-055-060>062-067>071-230400-
EASTERN PENNSYLVANIA

CITY           SKY/WX    TMP DP  RH WIND       PRES   REMARKS
SCRANTON       CLEAR     51  37  58 NW5       30.20R
MOUNT POCONO   CLEAR     46  37  71 NW13G23   30.16R
ALLENTOWN      CLEAR     51  39  63 VRB3      30.20R
QUAKERTOWN*    PTCLDY    50  43  76 CALM      30.21R
READING        CLEAR     52  40  63 NW8       30.21R
LANCASTER      CLEAR     52  41  66 NW6       30.22R
COATESVILLE    PTCLDY    54  41  62 NW9       30.21R
POTTSTOWN      CLEAR     52  42  69 NW5       30.21R
BLUE BELL      PTCLDY    55  45  67 CALM      30.19R
DOYLESTOWN     PTCLDY    53  41  63 N6        30.18R
WILLOW GROVE   NOT AVBL
NORTH PHILA    PTCLDY    57  42  57 NW6       30.20R
PHILADELPHIA   MOCLDY    60  41  49 NW12      30.20R
$$



USA.gov is the U.S. government's official web portal to all federal, state and local government web resources and services.